Date,TemperatureHighF,TemperatureAvgF,TemperatureLowF,DewpointHighF,DewpointAvgF,DewpointLowF,HumidityHigh,HumidityAvg,HumidityLow,PressureMaxIn,PressureMinIn,WindSpeedMaxMPH,WindSpeedAvgMPH,GustSpeedMaxMPH,PrecipitationSumIn
2014-2-1,31,27,22,30,25,20,95,93,91,30.07,29.81,11,2,12,0.01
2014-2-2,25,17,6,22,12,3,91,79,64,30.31,30.07,14,1,14,0.01
2014-2-3,18,9,0,8,3,-3,87,77,61,30.40,30.29,8,0,8,0.01
2014-2-4,24,17,7,20,12,3,92,82,67,30.42,30.04,19,2,20,0.01
2014-2-5,25,21,8,22,18,5,94,90,83,30.44,29.98,21,4,23,0.00
2014-2-6,7,0,-5,4,-4,-8,89,82,74,30.48,30.41,15,4,17,0.00
2014-2-7,10,2,-6,3,-3,-10,92,79,68,30.46,30.38,14,4,17,0.00
2014-2-8,16,11,2,13,8,-3,92,86,79,30.38,30.14,5,0,5,0.00
2014-2-9,18,13,3,14,9,-1,92,83,70,30.30,30.11,15,2,15,0.00
2014-2-10,12,2,-6,0,-5,-10,85,73,56,30.50,30.29,11,1,12,0.00
2014-2-11,11,2,-6,2,-4,-10,92,77,63,30.56,30.40,9,1,10,0.00
2014-2-12,21,11,-1,12,5,-4,87,78,66,30.40,30.02,8,0,8,0.00
2014-2-13,32,20,10,28,14,5,86,76,65,30.02,29.54,25,3,25,0.00
2014-2-14,21,15,11,15,10,7,92,79,68,29.95,29.61,14,2,16,0.00
2014-2-15,17,12,4,13,7,0,94,81,74,30.11,29.95,16,1,16,0.00
2014-2-16,28,22,15,19,17,13,94,80,61,30.26,29.94,15,1,15,0.00
2014-2-17,32,24,20,30,21,16,100,89,81,30.25,29.67,26,3,26,0.00
2014-2-18,43,34,20,33,29,18,94,82,66,29.96,29.62,20,4,21,0.38
2014-2-19,40,35,31,32,30,27,89,82,71,29.97,29.63,12,3,12,0.38
2014-2-20,50,38,34,49,36,30,100,91,80,29.91,29.21,34,5,41,1.12
2014-2-21,36,32,28,31,24,12,93,71,46,29.82,29.38,33,11,38,1.12
2014-2-22,33,27,24,20,16,12,76,64,47,30.01,29.82,14,4,17,0.00
2014-2-23,27,17,16,11,9,8,71,70,51,30.22,30.17,14,6,16,0.00
2014-2-24,23,18,12,12,9,-100,80,68,58,30.29,30.21,17,2,18,0.00
2014-2-25,21,16,6,14,8,-2,82,73,64,30.24,30.14,17,4,19,0.00
2014-2-26,13,5,0,2,-3,-6,78,69,58,30.24,29.97,19,6,23,0.00
2014-2-27,12,6,2,-2,-8,-13,62,51,37,30.21,29.87,11,2,0,0.00
2014-2-28,30,17,2,20,8,-8,80,68,56,30.23,30.00,9,1,12,0.00